Home > Weather > Calgary > Past weeks

Flag for Canada Weather for the Past 2 Weeks in Calgary, Alberta, Canada

Now
27 °F

Passing clouds.


Feels Like: 23 °F
Forecast: 22 / 47 °F
Wind: 3 mph from South

Location: Calgary International

Current Time: Feb 8, 2016 at 2:18:36 AM

Latest Report: Feb 8, 2016 at 1:00 AM


Visibility: 15 mi

Pressure: 30.43 "Hg (26.60 "Hg at 1063m altitude)

Humidity: 54%

Dew point: 12 °F

Location of CalgaryLocation

Historic Weather in Calgary — Graph

°F

Calgary Temperature Yesterday

Maximum temperature yesterday: 39 °F (at 2:00 PM)
Minimum temperature yesterday: 27 °F (at 11:00 PM)
Average temperature yesterday: 33 °F

High & Low Weather Summary for the Past Weeks

 TemperatureHumidityPressure
High55 °F (Jan 28, 3:00 PM)100% (Jan 24, 4:00 AM)30.53 "Hg (Jan 24, 4:00 AM)
Low9 °F (Jan 25, 2:00 AM)19% (Feb 6, 11:46 AM)29.43 "Hg (Jan 28, 2:00 PM)
Average32 °F57%29.97 "Hg
* Reported Jan 24 1:00 AM — Feb 8 1:00 AM, Calgary, Weather by CustomWeather, © 2016

Note: Actual official high and low records may vary slightly from our data, if they occured in-between our weather recording intervals... More about our weather records

Advertising

Calgary Weather History for the Previous 24 Hours

 ConditionsComfort  
Time TempWeatherWind HumidityBarometerVisibility
1:00 AM
Mon, Feb 8
27 °FPassing clouds.3 mph54%30.43 "Hg15 mi
12:00 AM28 °FPassing clouds.5 mph47%30.45 "Hg15 mi
11:00 PM
Sun, Feb 7
27 °FClear.5 mph50%30.46 "Hg15 mi
10:00 PM28 °FPassing clouds.6 mph47%30.48 "Hg15 mi
9:00 PM30 °FPassing clouds.5 mph43%30.50 "Hg15 mi
8:00 PM30 °FPassing clouds.5 mph43%30.50 "Hg15 mi
7:00 PM30 °FPassing clouds.8 mph40%30.50 "Hg15 mi
6:00 PM32 °FPartly cloudy.8 mph37%30.51 "Hg20 mi
5:00 PM37 °FPassing clouds.7 mph28%30.49 "Hg25 mi
4:00 PM39 °FScattered clouds.6 mph30%30.48 "Hg30 mi
3:00 PM39 °FBroken clouds.5 mph20%30.48 "Hg30 mi
2:00 PM39 °FPartly sunny.No wind24%30.50 "Hg30 mi
1:00 PM37 °FBroken clouds.5 mph26%30.50 "Hg30 mi
12:00 PM36 °FBroken clouds.7 mph27%30.52 "Hg30 mi
11:00 AM36 °FPartly sunny.12 mph25%30.52 "Hg30 mi
10:00 AM34 °FScattered clouds.15 mph27%30.53 "Hg30 mi
9:00 AM30 °FScattered clouds.14 mph31%30.53 "Hg30 mi
8:00 AM30 °FPassing clouds.10 mph34%30.51 "Hg30 mi
7:00 AM30 °FPassing clouds.14 mph31%30.49 "Hg15 mi
6:00 AM30 °FPassing clouds.15 mph31%30.47 "Hg15 mi
5:00 AM30 °FPassing clouds.17 mph34%30.43 "Hg15 mi
4:00 AM30 °FPassing clouds.17 mph34%30.40 "Hg15 mi
3:00 AM32 °FClear.20 mph32%30.38 "Hg15 mi
2:00 AM30 °FClear.15 mph34%30.35 "Hg15 mi
Weather by CustomWeather, © 2016

See weather overviewHow to use our weather pages